Home > Weather > Nome > Past weeks

Flag for USA Weather for the Past 2 Weeks in Nome, Alaska, USA

Now
30 °F

Passing clouds.


Feels Like: 30 °F
Forecast: 29 / 43 °F
Wind: No wind

Location: Nome Airport

Current Time: May 3, 2016 at 4:57:14 AM

Latest Report: May 3, 2016 at 3:53 AM


Visibility: 10 mi

Pressure: 29.68 "Hg

Humidity: 92%

Dew Point: 28 °F

Location of NomeLocation

Historic Weather in Nome — Graph

°F

Nome Temperature Yesterday

Maximum temperature yesterday: 42 °F (at 2:53 PM)
Minimum temperature yesterday: 29 °F (at 6:53 AM)
Average temperature yesterday: 35 °F

High & Low Weather Summary for the Past Weeks

 TemperatureHumidityPressure
High50 °F (Apr 26, 6:53 PM)96% (May 3, 1:53 AM)29.93 "Hg (May 3, 1:53 AM)
Low27 °F (Apr 24, 3:53 AM)42% (Apr 22, 5:53 PM)29.59 "Hg (Apr 26, 7:53 PM)
Average39 °F68%29.73 "Hg
* Reported Apr 18 2:53 AM — May 3 2:53 AM, Nome, Weather by CustomWeather, © 2016

Note: Actual official high and low records may vary slightly from our data, if they occured in-between our weather recording intervals... More about our weather records

Advertising

Nome Weather History for the Previous 24 Hours

Scroll right to see more
 ConditionsComfort  
Time TempWeatherWind HumidityBarometerVisibility
2:53 AM
Tue, May 3
31 °FPassing clouds.No wind89%29.68 "Hg10 mi
1:53 AM32 °FClear.No wind96%29.68 "Hg10 mi
12:53 AM33 °FPassing clouds.3 mph92%29.67 "Hg10 mi
11:53 PM
Mon, May 2
35 °FSunny.No wind85%29.67 "Hg10 mi
10:53 PM36 °FPassing clouds.No wind82%29.66 "Hg10 mi
9:53 PM36 °FPassing clouds.3 mph79%29.66 "Hg10 mi
8:53 PM37 °FScattered clouds.5 mph79%29.65 "Hg10 mi
7:53 PM38 °FScattered clouds.7 mph76%29.65 "Hg10 mi
6:53 PM38 °FScattered clouds.9 mph76%29.65 "Hg10 mi
5:53 PM39 °FScattered clouds.12 mph70%29.65 "Hg10 mi
4:53 PM39 °FScattered clouds.14 mph67%29.66 "Hg10 mi
3:53 PM39 °FPartly sunny.15 mph67%29.66 "Hg10 mi
2:53 PM42 °FPartly sunny.9 mph60%29.66 "Hg10 mi
1:53 PM38 °FPartly sunny.6 mph70%29.67 "Hg10 mi
12:53 PM35 °FPartly sunny.6 mph82%29.67 "Hg10 mi
11:53 AM36 °FBroken clouds.5 mph75%29.67 "Hg10 mi
10:53 AM37 °FPartly sunny.No wind76%29.67 "Hg10 mi
9:53 AM33 °FBroken clouds.No wind82%29.68 "Hg10 mi
8:53 AM34 °FScattered clouds.No wind79%29.68 "Hg10 mi
7:53 AM32 °FPartly sunny.No wind82%29.68 "Hg10 mi
6:53 AM29 °FPassing clouds.No wind82%29.68 "Hg10 mi
5:53 AM30 °FPassing clouds.3 mph82%29.68 "Hg10 mi
4:53 AM30 °FClear.No wind85%29.69 "Hg10 mi
Weather by CustomWeather, © 2016

See weather overviewHow to use our weather pages